Current Weather Conditions: station 62133

sailwx.info

Wind from 120 at 8 knots

Wave height 1.0 meters (3 feet), 4 second period

Last reported at 2019-Oct-18 08:00 UTC.
Time now 2019-Oct-18 09:36 UTC

Location: N 57°06' E 000°54'.
View on Google Maps.

See reports from other nearby stations

  
Tides and Currents Weather Stations Pressure Air Temp Water Temp Dewpoint Dewpoint Depression Visibility Wind Speed Wind Dir Waves Ship Positions
date/time (UTC)wind fromknots sea level pressurealtimeterstation pressurevisibilityair tempwater tempwave heightnotes
2019-Oct-18 08:00 120 8 1.0
2019-Oct-18 07:00 130 9 1.1
2019-Oct-18 06:00 130 14 1.2
2019-Oct-18 05:00 110 15 1.2
2019-Oct-18 04:00 120 17 1.2
2019-Oct-18 03:00 120 14 1.2
2019-Oct-18 02:00 150 13 1.1
2019-Oct-18 01:00 140 13 1.2
2019-Oct-18 00:00 150 14 1.2
2019-Oct-17 23:00 150 14 1.3
2019-Oct-17 22:00 160 17 1.2
2019-Oct-17 21:00 170 17 1.2
2019-Oct-17 20:00 170 15 1.2
2019-Oct-17 19:00 170 15 1.2
2019-Oct-17 18:00 170 13 1.1
2019-Oct-17 17:00 170 13 1.1
2019-Oct-17 16:00 180 13 1.2
2019-Oct-17 15:00 190 12 1.1
2019-Oct-17 14:00 190 12 1.1
2019-Oct-17 13:00 200 11 1.2
2019-Oct-17 12:00 210 12 1.3
2019-Oct-17 11:00 210 9 1.3
2019-Oct-17 10:00 230 7 1.2
2019-Oct-17 09:00 240 9 1.3
2019-Oct-17 08:00 240 7 1.2
2019-Oct-17 07:00 250 11 1.1
2019-Oct-17 06:00 260 9 1.1
2019-Oct-17 05:00 270 11 1.1
2019-Oct-17 04:00 290 9 1.1
2019-Oct-17 03:00 310 13 1.1
2019-Oct-17 02:00 300 13 1.1
2019-Oct-17 01:00 290 12 1.1
2019-Oct-17 00:00 290 11 1.2
2019-Oct-16 23:00 250 6 1.2
2019-Oct-16 22:00 240 6 1.3
2019-Oct-16 21:00 210 6 1.3
2019-Oct-16 20:00 190 8 1.4
2019-Oct-16 19:00 150 20 1.3
2019-Oct-16 18:00 130 24 1.3
2019-Oct-16 17:00 140 25 1.4
2019-Oct-16 16:00 130 20 1.3
2019-Oct-16 15:00 140 20 1.4
2019-Oct-16 14:00 150 20 1.3
2019-Oct-16 13:00 150 18 1.2
2019-Oct-16 12:00 160 18 1.2
2019-Oct-16 11:00 170 19 1.3
2019-Oct-16 10:00 170 19 1.3
2019-Oct-16 09:00 160 18 1.3